Torna al catalogo

STARLINK-1845

AttivoComunicazioniVLEO
NORAD 47135·PAYLOAD·🇺🇸 United States

Lanciato Nov 25, 2020 da Cape Canaveral Space Force Station

Loading…

Prossimi Passaggi (prossime 24 ore)

TLE

AggiornatoSource: CelesTrak SupGP

Epoca: Sep 14, 2026, 21:09 UTC

1 47135C 20088P   26257.88173611  .01482800  00000+0  94489-3 0  2571
2 47135  53.0275  54.9571 0011702 296.1149 283.1354 16.15936727    12

Traccia STARLINK-1845 in tempo reale con AllMySat

Download on the App Store